Location: Clatteringshaws Loch
(55.0508°N, 4.2860°W)
Time: 21:38:30
(UTC+01:00)

SR - Visible Passes

Search period start: 26 May 2017 00:00
Search period end: 05 June 2017 00:00
Orbit: 574 x 883 km, 66.7° (Epoch: 25 May)

Date Brightness Start Highest point End Pass type
(mag) Time Alt. Az. Time Alt. Az. Time Alt. Az.
26 May ? 01:40:26 10° W 01:45:57 37° NNW 01:51:25 10° NE visible
26 May ? 03:24:39 10° WNW 03:29:37 26° N 03:34:26 10° NE visible
26 May ? 23:08:00 10° SSW 23:13:45 58° SE 23:19:35 10° NE visible
27 May ? 00:50:23 10° WSW 00:56:08 48° NW 01:01:52 10° NE visible
27 May ? 02:34:31 10° WNW 02:39:34 28° N 02:44:31 10° NE visible
28 May ? 00:00:33 10° SW 00:06:27 67° NW 00:12:22 10° NE visible
28 May ? 01:44:19 10° W 01:49:35 31° NNW 01:54:46 10° NE visible
28 May ? 03:28:23 10° NW 03:33:22 27° N 03:38:10 10° ENE visible
28 May ? 23:10:59 10° SW 23:16:54 85° SE 23:22:53 10° NE visible
29 May ? 00:54:08 10° W 00:59:41 38° NNW 01:05:09 10° NE visible
29 May ? 02:38:22 10° WNW 02:43:19 26° N 02:48:08 10° NE visible
30 May ? 00:04:07 10° WSW 00:09:53 50° NW 00:15:37 10° NE visible
30 May ? 01:48:14 10° WNW 01:53:18 28° N 01:58:14 10° NE visible
30 May ? 03:31:59 10° NW 03:37:05 29° NNE 03:41:58 10° ENE visible
30 May ? 23:14:17 10° SW 23:20:12 69° NW 23:26:08 10° NE visible
31 May ? 00:58:02 10° W 01:03:19 32° NNW 01:08:30 10° NE visible
31 May ? 02:42:08 10° NW 02:47:04 27° N 02:51:51 10° ENE visible
01 Jun ? 00:07:52 10° W 00:13:24 39° NNW 00:18:53 10° NE visible
01 Jun ? 01:52:06 10° WNW 01:57:02 26° N 02:01:49 10° NE visible
01 Jun ? 03:35:26 10° NW 03:40:45 34° NNE 03:45:47 10° E visible
01 Jun ? 23:17:49 10° WSW 23:23:37 51° NW 23:29:22 10° NE visible
02 Jun ? 01:01:57 10° WNW 01:07:00 28° NNW 01:11:57 10° NE visible
02 Jun ? 02:45:44 10° NW 02:50:48 29° NNE 02:55:39 10° ENE visible
03 Jun ? 00:11:44 10° W 00:17:02 32° NNW 00:22:13 10° NE visible
03 Jun ? 01:55:51 10° NW 02:00:47 26° N 02:05:32 10° ENE visible
03 Jun ? 03:38:48 10° NW 03:44:20 42° NNE 03:49:31 10° E visible
03 Jun ? 23:21:34 10° W 23:27:08 39° NNW 23:32:37 10° NE visible
04 Jun ? 01:05:49 10° WNW 01:10:45 26° N 01:15:31 10° NE visible
04 Jun ? 02:49:11 10° NW 02:54:28 33° NNE 02:59:27 10° E visible
04 Jun ? 22:31:33 10° WSW 22:37:21 52° NW 22:43:07 10° NE visible
